Temp
16 16 17 17 16 16 16 17 17 17 17 18 18 18 17 17 17 17 17 16 16 14 14 13 12 12 12 11 10 10 9 9 9 8 8 7 7 7 8 7 7 7 8 8
16 16 16 16 16 16 16 17 17 17 17 17 18 17 17 17 18 18 17 16 16 15 14 13 13 12 12 11 11 10 9 9 9 8 8 7 7 8 8 8 7 8 8 8
15 15 16 16 16 16 16 16 17 17 17 17 17 18 17 17 18 18 18 16 15 15 14 13 13 12 12 11 11 11 10 10 10 9 9 9 9 9 8 8 8 8 8 8
15 15 15 15 16 16 16 16 16 17 17 17 17 17 17 18 17 18 18 17 16 15 14 13 12 12 12 11 11 11 10 10 10 10 10 9 9 9 8 8 8 8 8 8
14 15 15 16 16 16 16 16 16 16 16 17 16 16 17 17 17 17 17 17 16 15 14 13 12 12 12 11 11 11 11 10 10 9 9 10 9 9 9 9 9 8 8 8
14 14 15 16 16 16 16 16 16 16 16 16 16 15 17 17 17 17 17 16 15 15 14 13 13 12 12 12 11 11 11 11 10 10 9 9 9 9 9 9 9 9 9 8
14 15 15 15 16 16 16 16 15 14 11 12 15 15 17 16 16 16 16 16 15 15 14 13 13 12 12 11 11 11 11 11 10 10 9 9 9 9 9 9 9 9 9 8
14 15 15 15 16 16 16 16 15 12 9 13 15 16 17 16 16 16 16 16 15 15 14 13 13 13 12 11 11 11 11 10 10 10 10 9 10 9 9 9 9 9 8 8
14 14 15 15 15 16 16 16 16 16 13 13 15 15 17 17 16 16 16 16 16 15 15 14 13 13 12 11 11 11 11 10 10 10 10 10 9 9 9 9 8 8 8 8
14 14 15 15 15 16 16 16 15 15 11 12 14 15 16 16 16 16 16 15 15 15 15 14 13 13 12 11 11 11 11 10 9 9 9 9 9 9 9 8 8 8 8 8
14 14 14 15 15 16 16 16 15 15 15 11 9 15 16 16 15 15 16 16 15 15 15 13 13 12 11 11 11 11 10 10 8 8 7 8 9 9 8 8 8 8 8 7
14 14 14 15 15 15 15 16 16 16 14 14 13 16 16 16 16 16 16 15 15 15 14 14 13 12 11 10 10 11 11 10 8 6 6 8 8 8 8 8 8 8 8 7
14 14 13 14 15 15 15 16 16 16 15 15 13 16 16 16 16 16 15 15 15 15 14 13 12 11 11 10 10 11 10 10 7 7 7 9 8 8 8 7 7 7 7 7
14 14 14 14 15 15 15 15 15 16 15 15 15 16 16 16 16 15 15 15 15 14 13 13 12 11 10 10 10 10 10 9 9 8 9 9 8 8 7 7 7 7 7 7
14 14 14 14 15 15 15 15 15 15 15 15 15 15 16 16 16 16 15 14 14 14 13 13 12 11 10 10 9 9 9 9 9 8 8 9 8 7 7 7 7 6 6 6
14 14 14 14 14 14 14 15 15 15 15 15 15 15 16 16 16 16 14 14 13 13 13 12 11 10 10 9 9 9 8 8 9 9 8 8 7 7 7 6 6 6 6 6
13 14 14 13 13 13 13 14 14 15 15 14 15 15 15 16 15 14 13 13 13 13 12 12 11 9 9 9 9 9 8 8 8 8 8 8 7 8 7 6 6 6 6 6
13 13 13 12 13 11 13 13 13 13 14 14 14 14 15 15 15 14 13 13 12 12 11 11 11 10 10 10 9 10 9 8 8 8 7 7 7 7 7 5 5 6 5 6
12 13 12 12 13 12 13 13 13 13 13 13 14 14 14 14 13 13 12 12 12 12 11 11 10 10 10 10 10 9 8 8 8 7 7 6 6 6 6 5 5 5 5 5
11 12 12 11 11 10 13 13 12 12 12 13 13 13 13 13 12 12 12 11 11 11 10 10 10 10 10 10 10 9 8 8 7 7 7 7 6 6 6 6 5 5 5 5
10 10 11 11 11 11 11 11 12 12 12 12 12 12 12 12 11 10 10 10 10 10 9 10 10 10 9 9 9 8 8 8 8 7 7 7 6 6 6 6 6 6 5 5
10 10 10 10 10 10 11 11 11 11 12 12 12 12 12 12 11 10 10 10 10 10 10 10 10 9 9 9 9 8 8 8 8 7 7 7 7 7 7 6 6 6 6 5
8 9 9 10 10 11 11 10 11 10 10 11 11 10 11 10 10 10 11 11 10 10 10 10 10 10 10 9 9 9 8 7 7 8 7 7 7 7 7 6 6 6 6 5
7 8 8 9 9 10 10 9 10 10 10 10 10 10 10 9 9 10 10 11 11 10 10 10 10 10 10 9 9 9 8 8 8 8 8 8 8 8 7 7 6 6 5 5
6 7 7 8 8 8 9 9 9 9 9 9 9 9 9 9 10 10 11 11 10 10 10 10 9 9 9 9 9 8 8 8 8 8 8 8 8 8 7 7 6 6 5 4
5 5 6 7 8 8 8 8 8 8 8 8 9 9 9 9 10 10 9 9 9 9 9 9 9 9 9 8 8 8 8 8 8 8 7 7 7 7 6 6 6 5 5 4
Height
3179 3181 3182 3185 3188 3189 3189 3189 3189 3187 3186 3186 3188 3189 3191 3191 3192 3191 3190 3191 3193 3194 3195 3193 3190 3190 3190 3191 3189 3187 3185 3183 3179 3175 3168 3161 3163 3173 3179 3180 3181 3183 3185 3186
3178 3179 3182 3184 3186 3187 3187 3188 3188 3188 3187 3187 3187 3188 3189 3190 3189 3188 3188 3190 3192 3194 3194 3193 3189 3193 3191 3191 3190 3187 3185 3184 3181 3178 3172 3165 3170 3176 3179 3179 3181 3184 3184 3183
3175 3178 3180 3182 3183 3185 3186 3186 3187 3187 3186 3186 3187 3187 3187 3188 3187 3185 3183 3186 3189 3192 3192 3193 3192 3191 3191 3191 3191 3189 3185 3184 3181 3179 3177 3175 3178 3180 3181 3182 3181 3182 3181 3179
3174 3176 3178 3179 3182 3184 3184 3185 3185 3186 3187 3186 3187 3188 3186 3184 3184 3182 3179 3182 3187 3190 3191 3192 3190 3190 3191 3190 3190 3189 3187 3185 3182 3181 3179 3179 3180 3181 3181 3182 3181 3180 3179 3176
3173 3174 3177 3179 3181 3182 3184 3184 3184 3185 3186 3187 3186 3187 3184 3184 3183 3181 3180 3181 3184 3188 3189 3189 3190 3191 3190 3190 3189 3189 3188 3185 3183 3181 3182 3182 3182 3183 3183 3183 3181 3179 3176 3174
3170 3172 3175 3177 3178 3180 3182 3183 3184 3185 3185 3185 3185 3185 3183 3182 3182 3181 3181 3181 3183 3185 3187 3187 3188 3189 3189 3189 3189 3188 3187 3185 3184 3184 3184 3185 3184 3184 3184 3183 3181 3178 3174 3172
3168 3170 3173 3174 3177 3178 3180 3181 3182 3185 3186 3186 3184 3183 3181 3181 3180 3180 3179 3181 3182 3184 3185 3186 3187 3186 3185 3185 3185 3185 3185 3184 3184 3184 3185 3187 3186 3185 3183 3182 3179 3176 3173 3171
3165 3169 3171 3172 3174 3176 3178 3179 3181 3185 3189 3184 3182 3182 3180 3179 3178 3179 3180 3180 3182 3182 3183 3184 3184 3184 3183 3183 3184 3184 3184 3183 3183 3183 3184 3185 3186 3185 3183 3181 3178 3175 3172 3170
3163 3166 3168 3170 3172 3174 3175 3177 3179 3179 3183 3184 3182 3182 3179 3178 3177 3178 3179 3180 3181 3181 3181 3181 3182 3182 3182 3180 3181 3182 3180 3179 3180 3181 3181 3183 3183 3183 3181 3178 3177 3174 3172 3170
3162 3163 3165 3168 3169 3171 3172 3174 3177 3177 3183 3184 3181 3179 3178 3177 3177 3178 3178 3178 3178 3179 3180 3180 3179 3179 3179 3178 3180 3179 3176 3175 3176 3176 3177 3177 3180 3181 3179 3177 3176 3173 3171 3169
3159 3162 3163 3165 3165 3165 3167 3169 3172 3175 3177 3179 3182 3178 3176 3175 3177 3177 3177 3177 3177 3177 3177 3178 3179 3180 3178 3178 3179 3177 3172 3169 3167 3165 3169 3173 3177 3178 3177 3176 3174 3173 3171 3169
3156 3158 3159 3161 3163 3163 3164 3165 3168 3171 3175 3175 3175 3175 3174 3174 3174 3174 3176 3176 3176 3176 3175 3175 3176 3176 3176 3178 3177 3175 3170 3165 3157 3152 3165 3171 3174 3177 3177 3176 3174 3173 3171 3169
3151 3154 3158 3158 3161 3161 3162 3163 3165 3167 3169 3171 3173 3173 3173 3173 3172 3173 3173 3173 3174 3173 3172 3173 3175 3176 3176 3177 3176 3173 3169 3163 3155 3161 3168 3172 3175 3177 3176 3176 3174 3173 3171 3170
3147 3150 3152 3155 3157 3160 3161 3162 3162 3164 3167 3168 3169 3170 3171 3169 3170 3171 3170 3169 3169 3170 3170 3170 3173 3173 3174 3176 3176 3173 3171 3168 3167 3166 3170 3173 3175 3177 3176 3175 3174 3174 3172 3171
3143 3146 3149 3152 3154 3157 3159 3160 3160 3162 3163 3166 3168 3168 3168 3168 3167 3166 3166 3167 3168 3169 3168 3168 3168 3169 3171 3173 3174 3173 3173 3172 3171 3172 3171 3172 3174 3175 3176 3175 3174 3173 3173 3171
3138 3142 3145 3148 3150 3153 3155 3156 3158 3159 3160 3163 3165 3166 3166 3166 3165 3164 3164 3165 3166 3166 3166 3166 3167 3168 3169 3170 3170 3171 3172 3172 3173 3173 3172 3172 3172 3172 3173 3174 3174 3173 3173 3171
3137 3139 3141 3145 3148 3151 3154 3154 3154 3156 3157 3160 3162 3163 3163 3164 3164 3163 3162 3164 3165 3165 3164 3164 3165 3168 3168 3167 3169 3170 3171 3170 3171 3170 3171 3171 3169 3168 3170 3172 3174 3173 3172 3170
3135 3137 3140 3143 3146 3150 3149 3150 3152 3154 3155 3157 3159 3159 3160 3160 3161 3161 3163 3164 3163 3161 3159 3159 3161 3164 3164 3167 3167 3167 3168 3169 3168 3169 3169 3169 3168 3168 3168 3168 3169 3169 3169 3168
3135 3137 3139 3142 3144 3145 3146 3147 3150 3151 3154 3155 3156 3157 3158 3159 3159 3159 3161 3161 3160 3159 3158 3158 3159 3161 3163 3165 3165 3164 3165 3166 3165 3165 3166 3165 3166 3166 3165 3162 3164 3166 3166 3165
3134 3137 3141 3143 3144 3144 3144 3145 3147 3149 3152 3154 3155 3155 3157 3158 3157 3157 3157 3157 3157 3157 3157 3157 3159 3161 3163 3164 3164 3163 3164 3164 3163 3162 3163 3162 3163 3163 3163 3163 3162 3163 3163 3162
3130 3135 3140 3140 3142 3144 3144 3144 3146 3149 3155 3151 3153 3155 3156 3155 3154 3152 3151 3153 3154 3153 3154 3156 3157 3159 3159 3160 3160 3161 3160 3159 3160 3160 3159 3160 3161 3160 3161 3161 3161 3160 3160 3160
3130 3134 3138 3136 3140 3143 3143 3143 3146 3147 3147 3148 3149 3152 3152 3151 3149 3148 3148 3148 3151 3152 3152 3152 3154 3155 3155 3155 3156 3155 3155 3155 3154 3156 3156 3156 3155 3157 3158 3157 3154 3156 3156 3156
3132 3134 3135 3136 3136 3136 3137 3140 3141 3142 3143 3143 3144 3146 3148 3146 3146 3145 3145 3145 3147 3149 3150 3152 3153 3153 3152 3152 3151 3151 3149 3149 3149 3149 3150 3151 3151 3153 3154 3153 3152 3153 3153 3152
3127 3129 3130 3132 3133 3133 3136 3138 3138 3139 3140 3140 3140 3141 3142 3142 3142 3142 3143 3144 3146 3147 3148 3148 3148 3148 3148 3147 3147 3146 3146 3146 3145 3146 3146 3147 3146 3147 3147 3148 3148 3149 3149 3149
3124 3125 3126 3126 3128 3131 3132 3134 3136 3136 3136 3136 3137 3137 3138 3139 3139 3140 3141 3143 3144 3145 3145 3146 3145 3144 3142 3142 3142 3143 3142 3142 3141 3141 3141 3141 3142 3142 3143 3143 3144 3145 3145 3145
3121 3122 3124 3124 3125 3126 3129 3130 3132 3133 3134 3134 3135 3135 3135 3136 3138 3139 3140 3141 3142 3143 3142 3142 3142 3141 3139 3138 3138 3139 3138 3137 3138 3137 3136 3136 3137 3138 3138 3139 3139 3141 3141 3141
Wind_Speed
17 17 20 18 10 9 8 7 8 7 8 6 12 12 9 8 6 11 15 12 9 2 7 7 4 6 10 13 15 10 14 18 16 13 24 6 15 18 13 7 10 9 12 14
19 17 11 16 12 8 5 3 7 9 8 6 5 8 4 3 6 11 17 14 11 4 4 5 4 5 8 10 14 13 15 14 11 8 14 18 16 10 7 3 5 7 10 13
16 9 12 12 11 7 5 5 8 6 6 3 6 8 4 10 11 14 15 18 13 6 6 4 5 5 6 10 13 15 15 12 8 6 5 9 11 7 3 2 5 9 12 15
11 10 9 8 14 9 4 7 7 5 3 2 4 3 12 12 12 11 11 6 11 9 6 4 4 5 6 8 10 14 14 11 7 3 7 2 4 1 7 7 9 12 15 15
9 12 9 4 13 7 1 3 1 3 5 5 6 2 4 7 8 9 1 8 7 7 9 6 3 4 5 8 11 12 13 11 5 4 2 3 2 5 9 10 11 13 14 11
15 12 9 6 8 11 5 4 3 5 7 3 6 1 2 3 8 4 2 6 6 5 9 6 4 5 6 10 11 11 12 10 8 5 4 4 3 4 7 8 11 13 8 7
19 16 12 6 4 8 9 7 1 2 2 5 5 4 4 6 8 7 5 7 7 7 3 2 3 6 9 12 14 11 11 10 9 6 7 6 8 6 6 8 11 13 8 7
14 8 16 9 10 8 6 8 5 4 3 3 5 2 5 7 6 3 6 8 6 3 4 4 4 6 9 12 11 9 11 10 9 8 8 8 10 8 7 8 11 12 9 6
7 8 8 12 10 9 11 6 8 4 2 2 3 3 5 3 1 3 7 6 6 10 6 8 7 8 9 11 9 11 13 10 9 10 4 19 12 10 6 10 13 13 10 5
8 5 12 8 10 12 15 10 5 5 4 3 3 4 5 4 2 9 5 10 6 12 8 12 12 11 8 10 12 14 17 9 12 15 16 15 11 9 5 9 11 11 10 8
23 13 7 9 2 9 16 16 12 5 4 7 2 3 4 3 9 13 14 15 15 16 12 15 15 11 15 11 12 16 17 21 16 25 19 15 11 7 4 6 8 9 10 9
22 8 17 19 13 6 10 10 12 8 6 6 3 3 1 3 10 16 16 20 16 13 16 16 15 14 16 9 12 17 18 18 16 25 14 14 9 5 5 6 6 8 10 9
24 15 19 5 2 8 8 9 8 8 7 8 5 2 6 7 12 16 19 17 12 14 15 15 17 15 13 10 10 14 16 22 12 13 12 10 7 4 5 5 5 6 8 9
20 25 20 16 10 7 11 9 9 6 5 5 5 6 7 6 9 17 18 18 13 14 19 19 12 10 11 10 8 10 12 12 12 15 8 8 5 3 4 4 5 5 6 8
25 24 28 22 18 15 13 11 10 7 3 1 1 5 8 5 8 12 17 17 14 16 19 15 6 7 7 8 6 6 10 7 5 2 6 7 6 5 3 3 4 6 6 6
19 18 23 26 23 16 17 14 10 9 7 6 6 9 8 9 12 12 14 14 15 18 19 11 6 8 6 7 5 7 7 5 5 5 8 8 9 9 6 3 3 5 6 7
14 17 22 16 17 14 11 13 11 9 8 6 9 11 13 13 8 8 9 10 13 16 18 18 10 7 5 6 3 3 11 13 9 10 11 13 13 15 13 8 5 4 7 9
5 14 12 10 14 4 8 12 7 2 2 5 8 9 9 7 7 10 7 8 12 19 22 11 8 8 7 3 5 18 15 13 15 10 9 13 15 15 18 18 10 3 7 9
5 5 4 4 5 6 8 7 4 3 4 3 4 6 5 5 9 10 11 9 16 11 3 3 7 8 3 9 9 7 11 14 16 14 19 15 16 23 21 6 10 2 9 11
6 6 5 4 2 4 6 10 8 6 5 5 4 4 6 6 7 9 11 16 13 8 4 2 5 6 4 7 9 10 12 14 12 11 13 11 11 5 7 5 7 9 10 12
8 6 8 7 3 3 13 14 13 10 3 4 3 6 7 10 16 19 14 10 7 4 3 5 5 4 5 8 11 12 14 16 12 7 8 14 22 13 11 8 8 11 13 13
5 6 10 8 8 8 15 12 11 9 14 18 20 16 16 13 16 17 13 5 4 5 5 7 6 6 7 10 15 19 16 13 13 16 15 18 19 28 25 19 14 14 17 17
7 7 6 6 6 8 9 17 17 10 7 10 8 14 20 20 21 20 16 11 7 10 9 7 7 8 10 13 16 19 17 16 16 15 16 16 14 16 19 21 19 18 20 17
9 12 14 15 19 13 11 13 12 11 13 16 18 17 19 24 25 22 18 15 14 13 12 11 10 11 14 16 16 17 18 16 14 15 16 16 17 17 20 20 16 17 17 16
10 12 12 15 13 16 17 16 15 14 13 12 12 14 18 19 18 17 18 18 16 16 14 12 13 18 19 17 14 14 15 16 14 13 13 12 12 13 14 14 15 16 17 17
6 6 8 9 10 16 15 16 14 13 11 10 13 11 10 11 14 18 17 14 17 21 15 16 18 19 18 15 16 15 13 13 14 13 12 13 14 15 14 14 14 14 17 14
Wind_Direction
205 211 222 237 217 220 271 279 315 357 350 225 236 255 277 287 279 300 301 287 299 316 8 13 24 30 32 7 3 351 347 356 345 356 12 273 202 198 208 205 221 234 254 268
212 212 200 205 219 236 229 290 330 323 324 257 254 251 292 285 307 308 296 286 285 288 347 1 31 21 27 7 357 348 349 353 341 355 21 63 156 166 170 213 269 274 281 285
212 203 210 198 203 197 226 289 312 342 354 265 252 288 292 320 327 301 280 251 248 250 291 346 19 24 10 357 347 341 343 347 343 17 42 79 115 123 123 312 307 309 304 292
203 179 179 204 196 206 297 298 279 308 346 334 335 306 316 318 324 324 316 227 227 242 282 284 313 6 2 340 335 337 334 334 328 347 36 178 162 90 1 335 314 305 299 296
180 192 183 180 194 205 234 345 271 271 318 332 306 279 294 332 341 345 360 155 196 234 257 272 297 329 328 324 322 329 329 329 328 287 341 32 222 260 318 303 309 314 309 303
197 190 191 154 176 208 198 226 273 303 321 340 331 324 23 318 320 358 149 173 169 219 252 257 305 305 315 322 319 323 331 332 323 252 256 259 254 262 283 309 316 328 337 343
221 221 200 198 205 203 227 254 328 338 12 199 358 317 312 339 284 298 258 184 188 223 243 246 343 326 325 329 317 321 329 327 305 261 248 256 250 261 290 313 327 345 351 4
224 216 219 212 218 209 243 245 186 179 188 256 334 291 322 346 287 237 181 179 187 230 230 236 270 290 304 313 309 335 325 315 294 270 236 249 258 267 282 319 339 351 357 2
206 219 190 206 221 221 235 231 227 178 138 299 308 270 345 28 30 233 192 219 337 331 270 252 254 275 289 308 310 328 336 316 275 240 265 286 254 263 293 339 343 353 355 2
231 240 226 204 220 222 233 240 212 180 134 220 256 265 280 294 205 213 230 234 299 328 291 250 273 280 271 298 323 327 329 308 267 221 267 250 241 254 306 336 337 353 357 8
227 236 208 185 189 239 219 221 224 201 173 159 190 243 39 37 222 227 241 263 269 301 271 256 272 266 261 289 323 338 329 321 253 242 230 227 223 244 294 328 337 348 0 11
222 234 255 244 271 277 196 206 219 221 215 207 198 232 151 260 234 244 260 263 282 290 282 267 267 266 257 283 332 342 348 358 284 233 203 198 195 242 302 329 343 2 5 8
219 226 242 234 176 183 140 181 184 195 202 209 170 217 328 263 250 245 254 270 273 286 262 273 278 263 256 293 344 342 353 35 66 105 166 182 192 242 314 316 351 3 11 6
223 226 230 228 208 173 152 146 137 162 156 170 222 270 315 324 286 262 266 265 255 272 263 284 286 250 264 290 338 342 6 30 85 128 171 184 204 256 298 319 354 355 7 3
222 224 233 244 249 243 223 203 186 188 168 96 319 282 290 318 320 262 255 255 260 278 278 279 279 222 261 300 328 352 11 6 3 172 179 187 216 224 272 311 3 359 354 354
208 217 230 240 242 226 204 194 210 231 247 273 296 302 308 290 303 285 257 260 278 298 299 281 297 229 253 270 297 336 339 350 284 249 222 214 212 218 231 275 343 6 354 345
192 208 206 186 173 168 193 211 218 248 261 267 287 298 304 299 277 239 236 269 291 287 292 285 271 228 254 281 263 303 324 304 284 256 243 232 223 225 233 231 251 316 332 342
164 173 179 155 162 185 184 193 193 228 243 268 281 286 287 270 248 210 223 273 305 302 306 278 214 219 250 304 314 320 293 289 281 273 273 251 244 256 265 256 221 272 308 319
170 167 134 146 171 164 183 195 156 174 263 254 276 288 256 237 218 231 231 300 319 329 358 221 212 221 259 286 304 295 292 289 272 260 254 249 286 287 269 124 198 14 303 304
181 195 205 167 166 192 218 212 208 196 207 248 258 209 219 218 285 291 261 283 296 282 280 224 252 242 245 287 291 287 284 288 277 271 284 268 261 262 278 286 306 262 279 288
189 209 228 196 198 229 171 164 177 178 202 190 308 220 244 284 291 289 277 267 256 274 205 241 281 265 265 295 305 293 279 268 245 265 281 282 249 251 268 270 284 289 282 281
171 195 213 198 206 230 210 216 220 236 255 266 273 255 241 265 269 282 273 276 232 219 228 258 256 271 289 308 303 301 298 285 273 268 273 271 271 248 265 270 263 284 277 290
231 232 223 205 226 222 218 232 248 242 260 269 250 245 244 260 263 260 263 262 229 221 241 256 273 295 301 301 298 292 297 289 290 294 287 269 262 255 263 275 280 272 272 281
223 235 241 250 239 232 210 193 203 223 268 274 272 248 234 245 255 259 254 242 235 230 236 259 275 289 295 292 294 290 285 283 280 278 274 266 266 267 270 274 268 266 268 272
209 214 224 235 239 209 219 234 242 255 262 259 260 257 256 258 253 250 250 250 245 237 243 261 278 289 293 291 284 279 276 276 274 269 270 266 267 269 264 264 267 268 267 270
197 213 218 224 221 211 224 232 236 246 251 239 232 235 245 256 260 257 269 276 290 277 253 261 279 284 283 281 281 281 281 276 275 273 271 270 267 264 261 261 260 262 264 263